Tracking 29892 objects as of 21-Nov-2024
HD Live streaming from Space Station
objects crossing your sky now

STARLINK-4014

Track STARLINK-4014 now!
10-day predictions
STARLINK-4014 is classified as:


NORAD ID: 52684
Int'l Code: 2022-053AE
Perigee: 545.9 km
Apogee: 547.9 km
Inclination: 53.2 °
Period: 95.4 minutes
Semi major axis: 6917 km
RCS: Unknown
Launch date: May 18, 2022
Source: United States (US)
Launch site: AIR FORCE EASTERN TEST RANGE (AFETR)
Your satellite tracking list
Your tracking list is empty




NASA's NSSDC Master Catalog

Two Line Element Set (TLE):
1 52684U 22053AE  24325.80331444  .00000834  00000-0  70479-4 0  9996
2 52684  53.2159 111.4785 0001459  84.0893 276.0265 15.08843546139599
Source of the keplerian elements: AFSPC